Time,TemperatureF,DewpointF,PressureIn,WindDirection,WindDirectionDegrees,WindSpeedMPH,WindSpeedGustMPH,Humidity,HourlyPrecipIn,Conditions,Clouds,dailyrainin,SoftwareType,DateUTC
2013-02-25 00:05:00,27.4,25.4,30.18,North,5,7.0,7.0,92,0.00,,,0.00,Wunderground v.1.15,2013-02-25 06:05:00,
2013-02-25 00:10:00,27.4,25.4,30.19,North,360,6.0,6.0,92,0.00,,,0.00,Wunderground v.1.15,2013-02-25 06:10:00,
2013-02-25 00:15:00,27.3,25.3,30.19,NNE,12,6.0,15.0,92,0.00,,,0.00,Wunderground v.1.15,2013-02-25 06:15:00,
2013-02-25 00:20:00,27.3,25.3,30.19,NNE,23,6.0,6.0,92,0.00,,,0.00,Wunderground v.1.15,2013-02-25 06:20:00,
2013-02-25 00:25:00,27.4,25.1,30.19,NNE,22,5.0,15.0,91,0.00,,,0.00,Wunderground v.1.15,2013-02-25 06:25:00,
2013-02-25 00:35:00,27.4,25.1,30.20,NNE,26,6.0,7.0,91,0.00,,,0.00,Wunderground v.1.15,2013-02-25 06:35:00,
2013-02-25 00:40:00,27.5,25.5,30.20,NNE,18,6.0,15.0,92,0.00,,,0.00,Wunderground v.1.15,2013-02-25 06:40:00,
2013-02-25 00:45:00,27.4,25.1,30.19,NNE,13,6.0,15.0,91,0.00,,,0.00,Wunderground v.1.15,2013-02-25 06:45:00,
2013-02-25 00:50:00,27.4,25.1,30.19,NNW,348,5.0,15.0,91,0.00,,,0.00,Wunderground v.1.15,2013-02-25 06:50:00,
2013-02-25 00:55:00,27.4,25.1,30.18,NNE,28,5.0,15.0,91,0.00,,,0.00,Wunderground v.1.15,2013-02-25 06:55:00,
2013-02-25 01:00:00,27.4,25.1,30.19,NNE,17,5.0,5.0,91,0.00,,,0.00,Wunderground v.1.15,2013-02-25 07:00:00,
2013-02-25 01:10:00,27.4,25.1,30.19,North,9,5.0,5.0,91,0.00,,,0.00,Wunderground v.1.15,2013-02-25 07:10:00,
2013-02-25 01:15:00,27.4,25.4,30.19,North,349,5.0,15.0,92,0.00,,,0.00,Wunderground v.1.15,2013-02-25 07:15:00,
2013-02-25 01:20:00,27.5,25.5,30.19,North,9,5.0,5.0,92,0.00,,,0.00,Wunderground v.1.15,2013-02-25 07:20:00,
2013-02-25 01:25:00,27.5,25.5,30.19,North,355,4.0,15.0,92,0.00,,,0.00,Wunderground v.1.15,2013-02-25 07:25:00,
2013-02-25 01:30:00,27.4,25.4,30.20,North,355,4.0,4.0,92,0.00,,,0.00,Wunderground v.1.15,2013-02-25 07:30:00,
2013-02-25 01:40:00,27.4,25.4,30.20,North,355,5.0,15.0,92,0.00,,,0.00,Wunderground v.1.15,2013-02-25 07:40:00,
2013-02-25 01:45:00,27.4,25.4,30.19,North,5,4.0,15.0,92,0.00,,,0.00,Wunderground v.1.15,2013-02-25 07:45:00,
2013-02-25 01:50:00,27.4,25.4,30.19,North,350,4.0,15.0,92,0.00,,,0.00,Wunderground v.1.15,2013-02-25 07:50:00,
2013-02-25 01:55:00,27.4,25.4,30.18,NNW,348,4.0,15.0,92,0.00,,,0.00,Wunderground v.1.15,2013-02-25 07:55:00,
2013-02-25 02:00:00,27.4,25.4,30.18,North,355,4.0,15.0,92,0.00,,,0.00,Wunderground v.1.15,2013-02-25 08:00:00,
2013-02-25 02:05:00,27.4,25.4,30.17,North,5,5.0,15.0,92,0.00,,,0.00,Wunderground v.1.15,2013-02-25 08:05:00,
2013-02-25 02:15:00,27.2,25.4,30.16,NNW,343,6.0,10.0,93,0.00,,,0.00,Wunderground v.1.15,2013-02-25 08:15:00,
2013-02-25 02:20:00,27.1,25.3,30.17,North,10,7.0,15.0,93,0.00,,,0.00,Wunderground v.1.15,2013-02-25 08:20:00,
2013-02-25 02:25:00,27.1,25.3,30.17,North,355,6.0,15.0,93,0.00,,,0.00,Wunderground v.1.15,2013-02-25 08:25:00,
2013-02-25 02:30:00,26.9,25.1,30.17,NNW,340,5.0,15.0,93,0.00,,,0.00,Wunderground v.1.15,2013-02-25 08:30:00,
2013-02-25 02:35:00,26.8,25.0,30.16,North,360,6.0,15.0,93,0.00,,,0.00,Wunderground v.1.15,2013-02-25 08:35:00,
2013-02-25 02:45:00,26.8,25.0,30.17,NNW,333,5.0,15.0,93,0.00,,,0.00,Wunderground v.1.15,2013-02-25 08:45:00,
2013-02-25 02:50:00,26.9,25.1,30.17,North,360,5.0,15.0,93,0.00,,,0.00,Wunderground v.1.15,2013-02-25 08:50:00,
2013-02-25 02:55:00,26.8,25.0,30.17,North,355,5.0,15.0,93,0.00,,,0.00,Wunderground v.1.15,2013-02-25 08:55:00,
2013-02-25 03:00:00,26.9,25.1,30.18,North,360,4.0,4.0,93,0.00,,,0.00,Wunderground v.1.15,2013-02-25 09:00:00,
2013-02-25 03:05:00,26.9,25.1,30.17,North,360,4.0,15.0,93,0.00,,,0.00,Wunderground v.1.15,2013-02-25 09:05:00,
2013-02-25 03:10:00,26.8,25.0,30.17,NNE,23,4.0,4.0,93,0.00,,,0.00,Wunderground v.1.15,2013-02-25 09:10:00,
2013-02-25 03:20:00,26.9,25.1,30.19,NNW,348,4.0,15.0,93,0.00,,,0.00,Wunderground v.1.15,2013-02-25 09:20:00,
2013-02-25 03:25:00,27.0,25.2,30.18,NNW,348,5.0,15.0,93,0.00,,,0.00,Wunderground v.1.15,2013-02-25 09:25:00,
2013-02-25 03:30:00,27.0,25.2,30.19,NNW,338,4.0,15.0,93,0.00,,,0.00,Wunderground v.1.15,2013-02-25 09:30:00,
2013-02-25 03:35:00,27.0,25.2,30.19,NNW,334,4.0,15.0,93,0.00,,,0.00,Wunderground v.1.15,2013-02-25 09:35:00,
2013-02-25 03:40:00,27.1,25.3,30.18,North,5,4.0,15.0,93,0.00,,,0.00,Wunderground v.1.15,2013-02-25 09:40:00,
2013-02-25 03:50:00,27.2,25.4,30.17,NNE,22,6.0,15.0,93,0.00,,,0.00,Wunderground v.1.15,2013-02-25 09:50:00,
2013-02-25 03:55:00,27.2,25.4,30.16,NNE,25,6.0,15.0,93,0.00,,,0.00,Wunderground v.1.15,2013-02-25 09:55:00,
2013-02-25 04:00:00,27.3,25.5,30.16,NNE,27,6.0,6.0,93,0.00,,,0.00,Wunderground v.1.15,2013-02-25 10:00:00,
2013-02-25 04:05:00,27.4,25.6,30.17,NNE,23,6.0,15.0,93,0.00,,,0.00,Wunderground v.1.15,2013-02-25 10:05:00,
2013-02-25 04:10:00,27.4,25.6,30.17,North,355,5.0,5.0,93,0.00,,,0.00,Wunderground v.1.15,2013-02-25 10:10:00,
2013-02-25 04:15:00,27.4,25.6,30.17,NNW,344,4.0,6.0,93,0.00,,,0.00,Wunderground v.1.15,2013-02-25 10:15:00,
2013-02-25 04:25:00,27.4,25.6,30.17,North,350,4.0,15.0,93,0.00,,,0.00,Wunderground v.1.15,2013-02-25 10:25:00,
2013-02-25 04:30:00,27.4,25.6,30.17,North,350,4.0,15.0,93,0.00,,,0.00,Wunderground v.1.15,2013-02-25 10:30:00,
2013-02-25 04:35:00,27.4,25.6,30.18,NNW,337,4.0,15.0,93,0.00,,,0.00,Wunderground v.1.15,2013-02-25 10:35:00,
2013-02-25 04:40:00,27.4,25.6,30.18,NNW,336,4.0,4.0,93,0.00,,,0.00,Wunderground v.1.15,2013-02-25 10:40:00,
2013-02-25 04:45:00,27.4,25.6,30.18,NNW,338,4.0,15.0,93,0.00,,,0.00,Wunderground v.1.15,2013-02-25 10:45:00,
2013-02-25 04:50:00,27.4,25.6,30.18,NNW,339,4.0,15.0,93,0.00,,,0.00,Wunderground v.1.15,2013-02-25 10:50:00,
2013-02-25 04:55:00,27.3,25.5,30.18,NNW,339,4.0,15.0,93,0.00,,,0.00,Wunderground v.1.15,2013-02-25 10:55:00,
2013-02-25 05:00:00,27.3,25.5,30.18,NNW,341,4.0,15.0,93,0.00,,,0.00,Wunderground v.1.15,2013-02-25 11:00:00,
2013-02-25 05:05:00,27.2,25.4,30.17,NNW,342,4.0,15.0,93,0.00,,,0.00,Wunderground v.1.15,2013-02-25 11:05:00,
2013-02-25 05:10:00,27.2,25.4,30.17,NNW,342,4.0,4.0,93,0.00,,,0.00,Wunderground v.1.15,2013-02-25 11:10:00,
2013-02-25 05:15:00,27.2,25.4,30.17,NNW,342,4.0,15.0,93,0.00,,,0.00,Wunderground v.1.15,2013-02-25 11:15:00,
2013-02-25 05:25:00,27.1,25.1,30.17,NNW,331,4.0,15.0,92,0.00,,,0.00,Wunderground v.1.15,2013-02-25 11:25:00,
2013-02-25 05:30:00,27.1,25.1,30.17,NW,323,5.0,15.0,92,0.00,,,0.00,Wunderground v.1.15,2013-02-25 11:30:00,
2013-02-25 05:35:00,27.1,25.1,30.17,NNW,340,5.0,15.0,92,0.00,,,0.00,Wunderground v.1.15,2013-02-25 11:35:00,
2013-02-25 05:40:00,27.0,25.0,30.17,NNW,339,4.0,15.0,92,0.00,,,0.00,Wunderground v.1.15,2013-02-25 11:40:00,
2013-02-25 05:45:00,26.8,24.8,30.17,NNW,339,4.0,15.0,92,0.00,,,0.00,Wunderground v.1.15,2013-02-25 11:45:00,
2013-02-25 05:50:00,26.6,24.6,30.16,NNW,338,5.0,15.0,92,0.00,,,0.00,Wunderground v.1.15,2013-02-25 11:50:00,
2013-02-25 06:00:00,26.5,24.5,30.17,NNW,347,5.0,5.0,92,0.00,,,0.00,Wunderground v.1.15,2013-02-25 12:00:00,
2013-02-25 06:05:00,26.4,24.4,30.17,NNW,346,4.0,15.0,92,0.00,,,0.00,Wunderground v.1.15,2013-02-25 12:05:00,
2013-02-25 06:10:00,26.5,24.5,30.17,North,350,4.0,15.0,92,0.00,,,0.00,Wunderground v.1.15,2013-02-25 12:10:00,
2013-02-25 06:15:00,26.5,24.5,30.16,North,350,4.0,15.0,92,0.00,,,0.00,Wunderground v.1.15,2013-02-25 12:15:00,
2013-02-25 06:20:00,26.4,24.4,30.16,North,350,4.0,4.0,92,0.00,,,0.00,Wunderground v.1.15,2013-02-25 12:20:00,
2013-02-25 06:30:00,26.1,23.8,30.16,North,350,4.0,15.0,91,0.00,,,0.00,Wunderground v.1.15,2013-02-25 12:30:00,
2013-02-25 06:35:00,26.0,23.7,30.16,North,350,4.0,15.0,91,0.00,,,0.00,Wunderground v.1.15,2013-02-25 12:35:00,
2013-02-25 06:40:00,25.7,23.4,30.16,NNW,330,4.0,4.0,91,0.00,,,0.00,Wunderground v.1.15,2013-02-25 12:40:00,
2013-02-25 06:45:00,25.5,23.2,30.16,NNW,333,4.0,5.0,91,0.00,,,0.00,Wunderground v.1.15,2013-02-25 12:45:00,
2013-02-25 06:50:00,25.2,22.9,30.16,NNW,334,5.0,15.0,91,0.00,,,0.00,Wunderground v.1.15,2013-02-25 12:50:00,
2013-02-25 07:00:00,24.8,22.5,30.17,NNW,334,4.0,4.0,91,0.00,,,0.00,Wunderground v.1.15,2013-02-25 13:00:00,
2013-02-25 07:05:00,24.6,22.3,30.17,NNW,338,3.0,15.0,91,0.00,,,0.00,Wunderground v.1.15,2013-02-25 13:05:00,
2013-02-25 07:10:00,24.4,22.2,30.17,NNW,341,3.0,15.0,91,0.00,,,0.00,Wunderground v.1.15,2013-02-25 13:10:00,
2013-02-25 07:20:00,24.1,21.9,30.17,NNW,328,5.0,15.0,91,0.00,,,0.00,Wunderground v.1.15,2013-02-25 13:20:00,
2013-02-25 07:25:00,23.8,21.6,30.17,NW,326,6.0,15.0,91,0.00,,,0.00,Wunderground v.1.15,2013-02-25 13:25:00,
2013-02-25 07:30:00,23.6,21.4,30.17,NNW,329,6.0,15.0,91,0.00,,,0.00,Wunderground v.1.15,2013-02-25 13:30:00,
2013-02-25 07:35:00,23.6,21.4,30.17,NNW,328,6.0,15.0,91,0.00,,,0.00,Wunderground v.1.15,2013-02-25 13:35:00,
2013-02-25 07:45:00,23.6,21.4,30.17,NNW,335,5.0,15.0,91,0.00,,,0.00,Wunderground v.1.15,2013-02-25 13:45:00,
2013-02-25 07:50:00,23.7,21.5,30.18,NNW,336,4.0,4.0,91,0.00,,,0.00,Wunderground v.1.15,2013-02-25 13:50:00,
2013-02-25 07:55:00,23.9,21.9,30.18,NNW,336,3.0,15.0,92,0.00,,,0.00,Wunderground v.1.15,2013-02-25 13:55:00,
2013-02-25 08:00:00,24.2,22.2,30.19,North,355,2.0,15.0,92,0.00,,,0.00,Wunderground v.1.15,2013-02-25 14:00:00,
2013-02-25 08:10:00,24.7,22.4,30.19,North,355,4.0,15.0,91,0.00,,,0.00,Wunderground v.1.15,2013-02-25 14:10:00,
2013-02-25 08:15:00,24.8,22.5,30.19,North,360,4.0,15.0,91,0.00,,,0.00,Wunderground v.1.15,2013-02-25 14:15:00,
2013-02-25 08:20:00,24.9,22.6,30.19,North,360,5.0,5.0,91,0.00,,,0.00,Wunderground v.1.15,2013-02-25 14:20:00,
2013-02-25 08:25:00,25.1,22.8,30.19,North,360,4.0,15.0,91,0.00,,,0.00,Wunderground v.1.15,2013-02-25 14:25:00,
2013-02-25 08:35:00,25.6,23.3,30.19,North,360,4.0,15.0,91,0.00,,,0.00,Wunderground v.1.15,2013-02-25 14:35:00,
2013-02-25 08:40:00,25.7,23.4,30.19,North,360,4.0,15.0,91,0.00,,,0.00,Wunderground v.1.15,2013-02-25 14:40:00,
2013-02-25 08:45:00,25.8,23.3,30.19,North,355,5.0,15.0,90,0.00,,,0.00,Wunderground v.1.15,2013-02-25 14:45:00,
2013-02-25 08:50:00,25.9,23.4,30.18,North,351,5.0,5.0,90,0.00,,,0.00,Wunderground v.1.15,2013-02-25 14:50:00,
2013-02-25 08:55:00,26.1,23.6,30.18,North,5,5.0,6.0,90,0.00,,,0.00,Wunderground v.1.15,2013-02-25 14:55:00,
2013-02-25 09:00:00,26.2,23.7,30.18,North,360,5.0,5.0,90,0.00,,,0.00,Wunderground v.1.15,2013-02-25 15:00:00,
2013-02-25 09:05:00,26.4,23.9,30.19,North,9,5.0,15.0,90,0.00,,,0.00,Wunderground v.1.15,2013-02-25 15:05:00,
2013-02-25 09:10:00,26.4,23.9,30.18,NNE,26,5.0,15.0,90,0.00,,,0.00,Wunderground v.1.15,2013-02-25 15:10:00,
2013-02-25 09:20:00,26.1,23.3,30.18,NNE,23,7.0,7.0,89,0.00,,,0.00,Wunderground v.1.15,2013-02-25 15:20:00,
2013-02-25 09:25:00,26.0,23.2,30.18,NNE,24,6.0,15.0,89,0.00,,,0.00,Wunderground v.1.15,2013-02-25 15:25:00,
2013-02-25 09:30:00,26.0,23.2,30.18,NNE,15,6.0,15.0,89,0.00,,,0.00,Wunderground v.1.15,2013-02-25 15:30:00,
2013-02-25 09:35:00,26.0,23.2,30.18,NNE,14,5.0,15.0,89,0.00,,,0.00,Wunderground v.1.15,2013-02-25 15:35:00,
2013-02-25 09:40:00,26.2,23.4,30.18,North,355,5.0,15.0,89,0.00,,,0.00,Wunderground v.1.15,2013-02-25 15:40:00,
2013-02-25 09:50:00,26.3,23.2,30.19,NNE,27,5.0,15.0,88,0.00,,,0.00,Wunderground v.1.15,2013-02-25 15:50:00,
2013-02-25 09:55:00,26.1,23.0,30.19,NNE,21,6.0,15.0,88,0.00,,,0.00,Wunderground v.1.15,2013-02-25 15:55:00,
2013-02-25 10:00:00,26.1,23.0,30.19,NNE,31,7.0,7.0,88,0.00,,,0.00,Wunderground v.1.15,2013-02-25 16:00:00,
2013-02-25 10:05:00,26.3,23.2,30.19,NNE,28,6.0,9.0,88,0.00,,,0.00,Wunderground v.1.15,2013-02-25 16:05:00,
2013-02-25 10:10:00,26.5,23.4,30.19,NNE,27,6.0,6.0,88,0.00,,,0.00,Wunderground v.1.15,2013-02-25 16:10:00,
2013-02-25 10:20:00,26.9,23.8,30.19,NNE,24,6.0,15.0,88,0.00,,,0.00,Wunderground v.1.15,2013-02-25 16:20:00,
2013-02-25 10:25:00,27.1,24.0,30.19,North,5,6.0,15.0,88,0.00,,,0.00,Wunderground v.1.15,2013-02-25 16:25:00,
2013-02-25 10:30:00,27.6,24.5,30.19,North,5,6.0,15.0,88,0.00,,,0.00,Wunderground v.1.15,2013-02-25 16:30:00,
2013-02-25 10:35:00,27.8,24.4,30.19,North,5,5.0,15.0,87,0.00,,,0.00,Wunderground v.1.15,2013-02-25 16:35:00,
2013-02-25 10:40:00,27.9,24.3,30.19,NNE,22,6.0,15.0,86,0.00,,,0.00,Wunderground v.1.15,2013-02-25 16:40:00,
2013-02-25 10:45:00,28.1,24.5,30.19,NNE,16,6.0,15.0,86,0.00,,,0.00,Wunderground v.1.15,2013-02-25 16:45:00,
2013-02-25 10:55:00,28.7,25.0,30.18,North,11,7.0,15.0,86,0.00,,,0.00,Wunderground v.1.15,2013-02-25 16:55:00,
2013-02-25 11:00:00,29.0,25.3,30.18,NNE,30,9.0,9.0,86,0.00,,,0.00,Wunderground v.1.15,2013-02-25 17:00:00,
2013-02-25 11:05:00,29.2,25.5,30.18,NNE,21,9.0,15.0,86,0.00,,,0.00,Wunderground v.1.15,2013-02-25 17:05:00,
2013-02-25 11:10:00,29.4,25.7,30.17,NNE,25,9.0,15.0,86,0.00,,,0.00,Wunderground v.1.15,2013-02-25 17:10:00,
2013-02-25 11:15:00,29.4,25.4,30.17,NNE,24,10.0,15.0,85,0.00,,,0.00,Wunderground v.1.15,2013-02-25 17:15:00,
2013-02-25 11:20:00,29.8,26.1,30.17,NNE,22,10.0,15.0,86,0.00,,,0.00,Wunderground v.1.15,2013-02-25 17:20:00,
2013-02-25 11:30:00,30.2,26.2,30.17,North,9,10.0,10.0,85,0.00,,,0.00,Wunderground v.1.15,2013-02-25 17:30:00,
2013-02-25 11:35:00,30.4,26.4,30.17,NNE,19,10.0,12.0,85,0.00,,,0.00,Wunderground v.1.15,2013-02-25 17:35:00,
2013-02-25 11:40:00,30.7,26.7,30.16,NNE,22,9.0,15.0,85,0.00,,,0.00,Wunderground v.1.15,2013-02-25 17:40:00,
2013-02-25 11:45:00,30.7,26.4,30.16,NNE,24,10.0,15.0,84,0.00,,,0.00,Wunderground v.1.15,2013-02-25 17:45:00,
2013-02-25 11:50:00,30.9,26.6,30.16,NNE,22,11.0,15.0,84,0.00,,,0.00,Wunderground v.1.15,2013-02-25 17:50:00,
2013-02-25 12:00:00,31.3,27.0,30.15,NNE,28,11.0,15.0,84,0.00,,,0.00,Wunderground v.1.15,2013-02-25 18:00:00,
2013-02-25 12:05:00,31.6,27.0,30.14,NNE,30,11.0,15.0,83,0.00,,,0.00,Wunderground v.1.15,2013-02-25 18:05:00,
2013-02-25 12:10:00,31.7,27.1,30.14,NNE,32,11.0,11.0,83,0.00,,,0.00,Wunderground v.1.15,2013-02-25 18:10:00,
2013-02-25 12:15:00,32.0,27.4,30.13,NNE,24,11.0,14.0,83,0.00,,,0.00,Wunderground v.1.15,2013-02-25 18:15:00,
2013-02-25 12:20:00,32.0,27.4,30.13,NNE,33,11.0,11.0,83,0.00,,,0.00,Wunderground v.1.15,2013-02-25 18:20:00,
2013-02-25 12:25:00,32.1,27.5,30.13,NNE,22,12.0,12.0,83,0.00,,,0.00,Wunderground v.1.15,2013-02-25 18:25:00,
2013-02-25 12:35:00,31.9,27.3,30.12,NNE,13,12.0,15.0,83,0.00,,,0.00,Wunderground v.1.15,2013-02-25 18:35:00,
2013-02-25 12:40:00,31.9,27.3,30.12,NNE,32,12.0,15.0,83,0.00,,,0.00,Wunderground v.1.15,2013-02-25 18:40:00,
2013-02-25 12:45:00,31.7,27.1,30.13,NNE,15,13.0,15.0,83,0.00,,,0.00,Wunderground v.1.15,2013-02-25 18:45:00,
2013-02-25 12:50:00,32.0,27.7,30.12,NNE,16,13.0,13.0,84,0.00,,,0.00,Wunderground v.1.15,2013-02-25 18:50:00,
2013-02-25 12:55:00,32.1,27.2,30.12,NNE,17,11.0,15.0,82,0.00,,,0.00,Wunderground v.1.15,2013-02-25 18:55:00,
2013-02-25 13:05:00,32.1,27.5,30.12,NE,42,10.0,15.0,83,0.00,,,0.00,Wunderground v.1.15,2013-02-25 19:05:00,
2013-02-25 13:10:00,32.0,27.4,30.12,NE,40,10.0,10.0,83,0.00,,,0.00,Wunderground v.1.15,2013-02-25 19:10:00,
2013-02-25 13:15:00,32.0,27.4,30.12,NNE,21,10.0,15.0,83,0.00,,,0.00,Wunderground v.1.15,2013-02-25 19:15:00,
2013-02-25 13:20:00,32.1,27.5,30.12,NNE,22,10.0,15.0,83,0.00,,,0.00,Wunderground v.1.15,2013-02-25 19:20:00,
2013-02-25 13:25:00,32.0,27.4,30.12,NE,43,10.0,15.0,83,0.00,,,0.00,Wunderground v.1.15,2013-02-25 19:25:00,
2013-02-25 13:30:00,32.3,27.7,30.12,NNE,16,10.0,10.0,83,0.00,,,0.00,Wunderground v.1.15,2013-02-25 19:30:00,
2013-02-25 13:40:00,32.8,28.2,30.11,North,5,10.0,10.0,83,0.00,,,0.00,Wunderground v.1.15,2013-02-25 19:40:00,
2013-02-25 13:45:00,32.4,27.8,30.11,NNE,15,11.0,11.0,83,0.00,,,0.00,Wunderground v.1.15,2013-02-25 19:45:00,
2013-02-25 13:50:00,32.5,28.2,30.11,NNE,28,11.0,15.0,84,0.00,,,0.00,Wunderground v.1.15,2013-02-25 19:50:00,
2013-02-25 13:55:00,32.3,27.7,30.11,NNE,32,10.0,15.0,83,0.00,,,0.00,Wunderground v.1.15,2013-02-25 19:55:00,
2013-02-25 14:00:00,32.3,28.0,30.11,NNE,24,11.0,15.0,84,0.00,,,0.00,Wunderground v.1.15,2013-02-25 20:00:00,
2013-02-25 14:05:00,32.1,27.5,30.10,NE,41,12.0,15.0,83,0.00,,,0.00,Wunderground v.1.15,2013-02-25 20:05:00,
2013-02-25 14:15:00,32.1,27.8,30.10,NNE,30,13.0,15.0,84,0.00,,,0.00,Wunderground v.1.15,2013-02-25 20:15:00,
2013-02-25 14:20:00,32.4,28.1,30.10,NNE,21,11.0,11.0,84,0.00,,,0.00,Wunderground v.1.15,2013-02-25 20:20:00,
2013-02-25 14:25:00,32.6,28.3,30.10,NNE,28,10.0,15.0,84,0.00,,,0.00,Wunderground v.1.15,2013-02-25 20:25:00,
2013-02-25 14:30:00,32.6,28.3,30.10,North,355,10.0,10.0,84,0.00,,,0.00,Wunderground v.1.15,2013-02-25 20:30:00,
2013-02-25 14:35:00,32.7,28.1,30.11,NNE,24,9.0,15.0,83,0.00,,,0.00,Wunderground v.1.15,2013-02-25 20:35:00,
2013-02-25 14:40:00,32.8,28.5,30.10,NNE,18,9.0,15.0,84,0.00,,,0.00,Wunderground v.1.15,2013-02-25 20:40:00,
2013-02-25 14:50:00,32.6,28.0,30.10,NNE,21,11.0,11.0,83,0.00,,,0.00,Wunderground v.1.15,2013-02-25 20:50:00,
2013-02-25 14:55:00,32.6,28.0,30.11,NNE,20,11.0,15.0,83,0.00,,,0.00,Wunderground v.1.15,2013-02-25 20:55:00,
2013-02-25 15:00:00,32.5,27.9,30.10,NE,45,11.0,11.0,83,0.00,,,0.00,Wunderground v.1.15,2013-02-25 21:00:00,
2013-02-25 15:05:00,32.4,28.1,30.10,NNE,32,11.0,15.0,84,0.00,,,0.00,Wunderground v.1.15,2013-02-25 21:05:00,
2013-02-25 15:10:00,32.4,28.1,30.10,NNE,15,11.0,15.0,84,0.00,,,0.00,Wunderground v.1.15,2013-02-25 21:10:00,
2013-02-25 15:15:00,32.4,28.1,30.10,NNE,22,12.0,15.0,84,0.00,,,0.00,Wunderground v.1.15,2013-02-25 21:15:00,
2013-02-25 15:20:00,32.5,28.2,30.10,NNE,15,12.0,12.0,84,0.00,,,0.00,Wunderground v.1.15,2013-02-25 21:20:00,
2013-02-25 15:25:00,32.7,28.4,30.10,North,9,10.0,14.0,84,0.00,,,0.00,Wunderground v.1.15,2013-02-25 21:25:00,
2013-02-25 15:30:00,32.7,28.4,30.09,NNE,17,10.0,10.0,84,0.00,,,0.00,Wunderground v.1.15,2013-02-25 21:30:00,
2013-02-25 15:35:00,32.7,28.1,30.10,NNE,12,11.0,14.0,83,0.00,,,0.00,Wunderground v.1.15,2013-02-25 21:35:00,
2013-02-25 15:45:00,32.8,28.2,30.10,NNE,24,10.0,15.0,83,0.00,,,0.00,Wunderground v.1.15,2013-02-25 21:45:00,
2013-02-25 15:50:00,32.9,28.6,30.10,NNE,16,9.0,9.0,84,0.00,,,0.00,Wunderground v.1.15,2013-02-25 21:50:00,
2013-02-25 15:55:00,32.9,28.3,30.10,NNE,18,9.0,15.0,83,0.00,,,0.00,Wunderground v.1.15,2013-02-25 21:55:00,
2013-02-25 16:00:00,32.8,28.5,30.09,NNE,13,9.0,15.0,84,0.00,,,0.00,Wunderground v.1.15,2013-02-25 22:00:00,
2013-02-25 16:05:00,32.8,28.5,30.09,NNE,30,10.0,15.0,84,0.00,,,0.00,Wunderground v.1.15,2013-02-25 22:05:00,
2013-02-25 16:10:00,32.8,28.5,30.09,NNE,32,10.0,15.0,84,0.00,,,0.00,Wunderground v.1.15,2013-02-25 22:10:00,
2013-02-25 16:20:00,32.6,28.0,30.09,NNE,19,10.0,10.0,83,0.00,,,0.00,Wunderground v.1.15,2013-02-25 22:20:00,
2013-02-25 16:25:00,32.5,27.9,30.08,NNE,30,10.0,15.0,83,0.00,,,0.00,Wunderground v.1.15,2013-02-25 22:25:00,
2013-02-25 16:30:00,32.6,28.3,30.08,NNE,24,9.0,15.0,84,0.00,,,0.00,Wunderground v.1.15,2013-02-25 22:30:00,
2013-02-25 16:35:00,32.6,28.3,30.08,NNE,29,9.0,15.0,84,0.00,,,0.00,Wunderground v.1.15,2013-02-25 22:35:00,
2013-02-25 16:40:00,32.5,28.2,30.08,NE,36,9.0,15.0,84,0.00,,,0.00,Wunderground v.1.15,2013-02-25 22:40:00,
2013-02-25 16:50:00,32.3,28.3,30.08,NE,34,10.0,15.0,85,0.00,,,0.00,Wunderground v.1.15,2013-02-25 22:50:00,
2013-02-25 16:55:00,32.2,28.2,30.08,North,11,10.0,15.0,85,0.00,,,0.00,Wunderground v.1.15,2013-02-25 22:55:00,
2013-02-25 17:00:00,32.0,27.7,30.08,NNE,28,11.0,15.0,84,0.00,,,0.00,Wunderground v.1.15,2013-02-25 23:00:00,
2013-02-25 17:05:00,31.8,27.5,30.07,NNE,18,11.0,15.0,84,0.00,,,0.00,Wunderground v.1.15,2013-02-25 23:05:00,
2013-02-25 17:10:00,31.9,27.6,30.07,NNE,22,11.0,11.0,84,0.00,,,0.00,Wunderground v.1.15,2013-02-25 23:10:00,
2013-02-25 17:15:00,31.8,27.5,30.07,NNE,18,10.0,12.0,84,0.00,,,0.00,Wunderground v.1.15,2013-02-25 23:15:00,
2013-02-25 17:25:00,31.7,27.4,30.06,NE,42,12.0,15.0,84,0.00,,,0.00,Wunderground v.1.15,2013-02-25 23:25:00,
2013-02-25 17:30:00,31.7,27.7,30.06,ENE,57,11.0,11.0,85,0.00,,,0.00,Wunderground v.1.15,2013-02-25 23:30:00,
2013-02-25 17:35:00,31.6,27.6,30.06,NNE,15,11.0,15.0,85,0.00,,,0.00,Wunderground v.1.15,2013-02-25 23:35:00,
2013-02-25 17:40:00,31.5,27.2,30.07,NNE,12,10.0,15.0,84,0.00,,,0.00,Wunderground v.1.15,2013-02-25 23:40:00,
2013-02-25 17:45:00,31.5,27.5,30.07,NE,34,10.0,15.0,85,0.00,,,0.00,Wunderground v.1.15,2013-02-25 23:45:00,
2013-02-25 17:55:00,31.5,27.5,30.07,NE,35,8.0,11.0,85,0.00,,,0.00,Wunderground v.1.15,2013-02-25 23:55:00,
2013-02-25 18:00:00,31.5,27.5,30.07,NNE,20,10.0,15.0,85,0.00,,,0.00,Wunderground v.1.15,2013-02-26 00:00:00,
2013-02-25 18:05:00,31.5,27.5,30.07,NNE,13,10.0,15.0,85,0.00,,,0.00,Wunderground v.1.15,2013-02-26 00:05:00,
2013-02-25 18:10:00,31.5,27.5,30.07,NNE,31,10.0,10.0,85,0.00,,,0.00,Wunderground v.1.15,2013-02-26 00:10:00,
2013-02-25 18:15:00,31.5,27.5,30.07,NE,36,10.0,15.0,85,0.00,,,0.00,Wunderground v.1.15,2013-02-26 00:15:00,
2013-02-25 18:20:00,31.5,27.5,30.07,NNE,15,10.0,10.0,85,0.00,,,0.00,Wunderground v.1.15,2013-02-26 00:20:00,
2013-02-25 18:25:00,31.4,27.7,30.07,NNE,17,9.0,15.0,86,0.00,,,0.00,Wunderground v.1.15,2013-02-26 00:25:00,
2013-02-25 18:30:00,31.4,27.7,30.07,NNE,33,8.0,15.0,86,0.00,,,0.00,Wunderground v.1.15,2013-02-26 00:30:00,
2013-02-25 18:35:00,31.4,27.7,30.08,North,360,8.0,15.0,86,0.00,,,0.00,Wunderground v.1.15,2013-02-26 00:35:00,
2013-02-25 18:40:00,31.4,27.7,30.08,NNE,20,8.0,8.0,86,0.00,,,0.00,Wunderground v.1.15,2013-02-26 00:40:00,
2013-02-25 18:45:00,31.3,27.6,30.08,NNE,19,7.0,15.0,86,0.00,,,0.00,Wunderground v.1.15,2013-02-26 00:45:00,
2013-02-25 18:50:00,31.2,27.8,30.08,North,5,5.0,15.0,87,0.00,,,0.00,Wunderground v.1.15,2013-02-26 00:50:00,
2013-02-25 19:00:00,31.2,27.5,30.08,North,9,7.0,15.0,86,0.00,,,0.00,Wunderground v.1.15,2013-02-26 01:00:00,
2013-02-25 19:05:00,31.1,27.4,30.07,North,355,8.0,15.0,86,0.00,,,0.00,Wunderground v.1.15,2013-02-26 01:05:00,
2013-02-25 19:10:00,30.9,27.2,30.07,NE,36,6.0,6.0,86,0.00,,,0.00,Wunderground v.1.15,2013-02-26 01:10:00,
2013-02-25 19:15:00,30.7,27.3,30.07,NNE,19,5.0,15.0,87,0.00,,,0.00,Wunderground v.1.15,2013-02-26 01:15:00,
2013-02-25 19:20:00,30.4,27.0,30.06,North,5,6.0,6.0,87,0.00,,,0.00,Wunderground v.1.15,2013-02-26 01:20:00,
2013-02-25 19:30:00,29.8,26.7,30.07,NNE,19,5.0,5.0,88,0.00,,,0.00,Wunderground v.1.15,2013-02-26 01:30:00,
2013-02-25 19:35:00,29.6,26.5,30.06,North,360,6.0,6.0,88,0.00,,,0.00,Wunderground v.1.15,2013-02-26 01:35:00,
2013-02-25 19:40:00,29.5,26.4,30.06,North,360,6.0,6.0,88,0.00,,,0.00,Wunderground v.1.15,2013-02-26 01:40:00,
2013-02-25 19:45:00,29.3,26.2,30.06,North,5,6.0,7.0,88,0.00,,,0.00,Wunderground v.1.15,2013-02-26 01:45:00,
2013-02-25 19:50:00,29.2,26.1,30.06,North,10,6.0,6.0,88,0.00,,,0.00,Wunderground v.1.15,2013-02-26 01:50:00,
2013-02-25 19:55:00,29.1,26.0,30.05,North,5,6.0,15.0,88,0.00,,,0.00,Wunderground v.1.15,2013-02-26 01:55:00,
2013-02-25 20:05:00,28.8,26.0,30.05,NNE,17,6.0,15.0,89,0.00,,,0.00,Wunderground v.1.15,2013-02-26 02:05:00,
2013-02-25 20:10:00,28.6,25.8,30.05,North,11,5.0,5.0,89,0.00,,,0.00,Wunderground v.1.15,2013-02-26 02:10:00,
2013-02-25 20:15:00,28.4,25.6,30.04,North,5,5.0,15.0,89,0.00,,,0.00,Wunderground v.1.15,2013-02-26 02:15:00,
2013-02-25 20:20:00,28.1,25.3,30.05,North,5,4.0,15.0,89,0.00,,,0.00,Wunderground v.1.15,2013-02-26 02:20:00,
2013-02-25 20:25:00,27.8,25.0,30.04,North,5,4.0,15.0,89,0.00,,,0.00,Wunderground v.1.15,2013-02-26 02:25:00,
2013-02-25 20:35:00,27.3,24.5,30.03,North,355,5.0,15.0,89,0.00,,,0.00,Wunderground v.1.15,2013-02-26 02:35:00,
2013-02-25 20:40:00,27.0,24.5,30.02,North,360,5.0,15.0,90,0.00,,,0.00,Wunderground v.1.15,2013-02-26 02:40:00,
2013-02-25 20:45:00,26.8,24.3,30.02,North,355,5.0,15.0,90,0.00,,,0.00,Wunderground v.1.15,2013-02-26 02:45:00,
2013-02-25 20:50:00,26.7,24.2,30.02,North,5,5.0,5.0,90,0.00,,,0.00,Wunderground v.1.15,2013-02-26 02:50:00,
2013-02-25 20:55:00,26.6,24.3,30.02,North,355,5.0,15.0,91,0.00,,,0.00,Wunderground v.1.15,2013-02-26 02:55:00,
2013-02-25 21:00:00,26.7,24.4,30.02,North,5,5.0,15.0,91,0.00,,,0.00,Wunderground v.1.15,2013-02-26 03:00:00,
2013-02-25 21:10:00,26.8,24.5,30.02,North,355,5.0,15.0,91,0.00,,,0.00,Wunderground v.1.15,2013-02-26 03:10:00,
2013-02-25 21:15:00,26.7,24.4,30.02,North,351,5.0,15.0,91,0.00,,,0.00,Wunderground v.1.15,2013-02-26 03:15:00,
2013-02-25 21:20:00,26.6,24.3,30.02,North,355,5.0,5.0,91,0.00,,,0.00,Wunderground v.1.15,2013-02-26 03:20:00,
2013-02-25 21:25:00,26.5,24.2,30.02,North,355,5.0,15.0,91,0.00,,,0.00,Wunderground v.1.15,2013-02-26 03:25:00,
2013-02-25 21:30:00,26.4,24.1,30.03,North,360,5.0,5.0,91,0.00,,,0.00,Wunderground v.1.15,2013-02-26 03:30:00,
2013-02-25 21:40:00,26.3,23.8,30.03,North,350,5.0,15.0,90,0.00,,,0.00,Wunderground v.1.15,2013-02-26 03:40:00,
2013-02-25 21:45:00,26.2,23.7,30.03,North,350,5.0,15.0,90,0.00,,,0.00,Wunderground v.1.15,2013-02-26 03:45:00,
2013-02-25 21:50:00,26.2,23.7,30.03,North,355,5.0,5.0,90,0.00,,,0.00,Wunderground v.1.15,2013-02-26 03:50:00,
2013-02-25 21:55:00,26.2,23.7,30.04,North,355,5.0,15.0,90,0.00,,,0.00,Wunderground v.1.15,2013-02-26 03:55:00,
2013-02-25 22:00:00,26.2,23.7,30.04,North,355,5.0,5.0,90,0.00,,,0.00,Wunderground v.1.15,2013-02-26 04:00:00,
2013-02-25 22:05:00,26.1,23.6,30.05,NNE,26,5.0,6.0,90,0.00,,,0.00,Wunderground v.1.15,2013-02-26 04:05:00,
2013-02-25 22:15:00,26.0,23.5,30.05,NNE,20,7.0,7.0,90,0.00,,,0.00,Wunderground v.1.15,2013-02-26 04:15:00,
2013-02-25 22:20:00,26.1,23.6,30.05,NNE,19,7.0,7.0,90,0.00,,,0.00,Wunderground v.1.15,2013-02-26 04:20:00,
2013-02-25 22:25:00,26.0,23.5,30.04,North,10,7.0,15.0,90,0.00,,,0.00,Wunderground v.1.15,2013-02-26 04:25:00,
2013-02-25 22:30:00,25.9,23.4,30.04,North,360,6.0,6.0,90,0.00,,,0.00,Wunderground v.1.15,2013-02-26 04:30:00,
2013-02-25 22:35:00,25.7,23.2,30.04,North,360,5.0,15.0,90,0.00,,,0.00,Wunderground v.1.15,2013-02-26 04:35:00,
2013-02-25 22:45:00,25.2,22.7,30.03,North,11,5.0,15.0,90,0.00,,,0.00,Wunderground v.1.15,2013-02-26 04:45:00,
2013-02-25 22:50:00,25.1,22.6,30.03,North,5,4.0,15.0,90,0.00,,,0.00,Wunderground v.1.15,2013-02-26 04:50:00,
2013-02-25 22:55:00,25.0,22.5,30.03,NNE,24,4.0,15.0,90,0.00,,,0.00,Wunderground v.1.15,2013-02-26 04:55:00,
2013-02-25 23:00:00,24.9,22.4,30.04,NNE,24,5.0,15.0,90,0.00,,,0.00,Wunderground v.1.15,2013-02-26 05:00:00,
2013-02-25 23:05:00,24.9,22.4,30.04,NNE,31,6.0,15.0,90,0.00,,,0.00,Wunderground v.1.15,2013-02-26 05:05:00,
2013-02-25 23:10:00,24.9,22.4,30.05,NE,38,6.0,15.0,90,0.00,,,0.00,Wunderground v.1.15,2013-02-26 05:10:00,
2013-02-25 23:15:00,24.6,22.1,30.05,NE,36,5.0,15.0,90,0.00,,,0.00,Wunderground v.1.15,2013-02-26 05:15:00,
2013-02-25 23:20:00,24.4,21.9,30.05,NE,40,5.0,15.0,90,0.00,,,0.00,Wunderground v.1.15,2013-02-26 05:20:00,
2013-02-25 23:25:00,24.4,21.9,30.05,NE,36,5.0,15.0,90,0.00,,,0.00,Wunderground v.1.15,2013-02-26 05:25:00,
2013-02-25 23:30:00,24.5,22.2,30.05,NNE,30,5.0,5.0,91,0.00,,,0.00,Wunderground v.1.15,2013-02-26 05:30:00,
2013-02-25 23:35:00,24.7,22.4,30.05,NNE,16,5.0,15.0,91,0.00,,,0.00,Wunderground v.1.15,2013-02-26 05:35:00,
2013-02-25 23:40:00,24.7,22.4,30.05,NNE,16,5.0,15.0,91,0.00,,,0.00,Wunderground v.1.15,2013-02-26 05:40:00,
2013-02-25 23:50:00,24.7,22.4,30.05,NNE,13,5.0,5.0,91,0.00,,,0.00,Wunderground v.1.15,2013-02-26 05:50:00,
2013-02-25 23:55:00,24.8,22.5,30.06,NNE,19,6.0,6.0,91,0.00,,,0.00,Wunderground v.1.15,2013-02-26 05:55:00,